Location: Rowland
(34.5359°N, 79.2929°W)
Time: 18:22:40
(UTC+00:00)

Transit 2A - Pass Details

Date: 05 October 2022
Orbit: 598 x 959 km, 66.7° (Epoch: 02 December)

Event Time Altitude Azimuth Distance (km) Brightness Sun altitude
Rises 13:12:35 0° 328° (NNW) 3,025 8.6 22.6°
Reaches altitude 10° 13:14:50 10° 324° (NW) 2,155 7.9 23.0°
Maximum altitude 13:19:38 57° 247° (WSW) 876 6.4 23.9°
Drops below altitude 10° 13:24:56 10° 169° (S) 2,376 9.2 24.9°
Sets 13:27:31 0° 166° (SSE) 3,364 9.9 25.4°
